Mountain Home, Arkansas, United States (72653)
Lat: 36.34N, Lon: 92.39W
Wx Zone: ARZ005
Local Info
Past Weather Observations for Sunday, October 26, 2014

NOTE: This archive is for the closest National Weather Service station to Mountain Home. Information may differ from the station used for current weather conditions.

Click here for Long-term Archive

Time Weather Temperature Dewpoint Humidity Pressure Winds Precip Visibility
23:53
Clear
66°F / 19°C 61°F / 16°C 83% 29.83 in
(1010 mb)
S 5.8 mph
(S 9 kph)
- 9SM
22:53
Clear
70°F / 21°C 61°F / 16°C 73% 29.83 in
(1010 mb)
S 10.4 mph
(S 17 kph)
- 9SM
21:53
Clear
72°F / 22°C 61°F / 16°C 69% 29.83 in
(1010 mb)
S 11.5 mph
(S 19 kph)
- 9SM
20:53
Clear
72°F / 22°C 61°F / 16°C 69% 29.86 in
(1011 mb)
S 10.4 mph
(S 17 kph)
- 10SM
19:53
Clear
72°F / 22°C 61°F / 16°C 69% 29.86 in
(1011 mb)
S 6.9 mph
(S 11 kph)
- 10SM
18:53
Clear
73°F / 23°C 61°F / 16°C 65% 29.89 in
(1012 mb)
SW 4.6 mph
(SW 7 kph)
- 10SM
17:53
Clear
75°F / 24°C 59°F / 15°C 57% 29.86 in
(1011 mb)
S 5.8 mph
(S 9 kph)
- 10SM
16:53
Clear
79°F / 26°C 57°F / 14°C 48% 29.86 in
(1011 mb)
SW 9.2 mph
(SW 15 kph)
- 10SM
15:53
Clear
82°F / 28°C 57°F / 14°C 42% 29.86 in
(1011 mb)
S 9.2 mph
(S 15 kph)
- 10SM
14:53
Clear
84°F / 29°C 57°F / 14°C 40% 29.89 in
(1012 mb)
SW 11.5 mph
(SW 19 kph)
- 10SM
13:53
Clear
84°F / 29°C 61°F / 16°C 45% 29.89 in
(1012 mb)
SW 8.1 mph
(SW 13 kph)
- 10SM
12:53
Clear
84°F / 29°C 63°F / 17°C 48% 29.92 in
(1013 mb)
SW 5.8 mph
(SW 9 kph)
- 9SM
11:53
Clear
81°F / 27°C 63°F / 17°C 54% 29.98 in
(1015 mb)
SSE 6.9 mph
(SSE 11 kph)
- 9SM
10:53
Clear
79°F / 26°C 63°F / 17°C 58% 29.98 in
(1015 mb)
S 9.2 mph
(S 15 kph)
- 9SM
09:53
Clear
73°F / 23°C 64°F / 18°C 74% 30.01 in
(1016 mb)
S 4.6 mph
(S 7 kph)
- 8SM
08:53
Clear
Fog And Mist
66°F / 19°C 64°F / 18°C 94% 30.01 in
(1016 mb)
SSE 3.5 mph
(SSE 6 kph)
- 6SM
08:21
Clear
Fog And Mist
64°F / 18°C 63°F / 17°C 94% 30.01 in
(1016 mb)
SSE 3.5 mph
(SSE 6 kph)
- 5SM
08:13
Clear
Fog And Mist
63°F / 17°C 63°F / 17°C 100% 30.01 in
(1016 mb)
Calm - 2SM
08:03
Clear
Fog And Mist
63°F / 17°C 63°F / 17°C 100% 30.01 in
(1016 mb)
Calm - 3/4SM
07:53
Clear
Fog
63°F / 17°C 63°F / 17°C 100% 30.01 in
(1016 mb)
Calm - 1/4SM
07:41
Clear
Fog
61°F / 16°C 61°F / 16°C 100% 30.01 in
(1016 mb)
Calm - 1/4SM
06:53
Obscured
Fog
57°F / 14°C 57°F / 14°C 100% 30.01 in
(1016 mb)
Calm - M1/4SM
06:48
Obscured
Fog
57°F / 14°C 57°F / 14°C 100% 30.01 in
(1016 mb)
Calm - M1/4SM
06:32
Obscured
Fog
57°F / 14°C 57°F / 14°C 100% 30.01 in
(1016 mb)
Calm - 1/4SM
06:26
Clear
Fog
57°F / 14°C 57°F / 14°C 100% 30.01 in
(1016 mb)
Calm - 1/2SM
06:11
Clear
Fog And Mist
59°F / 15°C 59°F / 15°C 100% 30.01 in
(1016 mb)
Calm - 1SM
06:01
Clear
Fog
59°F / 15°C 57°F / 14°C 94% 30.01 in
(1016 mb)
Calm - 1/2SM
05:53
Obscured
Fog And Mist
59°F / 15°C 59°F / 15°C 100% 30.01 in
(1016 mb)
Calm - 3/4SM
05:50
Obscured
Fog And Mist
59°F / 15°C 59°F / 15°C 100% 30.01 in
(1016 mb)
Calm - 3/4SM
05:39
Obscured
Fog
57°F / 14°C 57°F / 14°C 100% 30.01 in
(1016 mb)
Calm - 1/2SM
05:13
Obscured
Fog
57°F / 14°C 57°F / 14°C 100% 30.01 in
(1016 mb)
Calm - 1/4SM
05:06
Obscured
Fog
57°F / 14°C 57°F / 14°C 100% 30.01 in
(1016 mb)
Calm - 1/2SM
04:57
Clear
Fog And Mist
57°F / 14°C 57°F / 14°C 100% 30.01 in
(1016 mb)
Calm - 3/4SM
04:53
Clear
Fog And Mist
59°F / 15°C 59°F / 15°C 100% 30.01 in
(1016 mb)
Calm - 2 1/2SM
04:41
Clear
Fog And Mist
61°F / 16°C 61°F / 16°C 100% 30.01 in
(1016 mb)
Calm - 1 3/4SM
04:21
Clear
Fog And Mist
61°F / 16°C 61°F / 16°C 100% 30.01 in
(1016 mb)
Calm - 3SM
04:05
Clear
Fog And Mist
59°F / 15°C 59°F / 15°C 100% 30.01 in
(1016 mb)
Calm - 1SM
03:53
Clear
Fog
59°F / 15°C 59°F / 15°C 100% 30.01 in
(1016 mb)
Calm - 1/2SM
03:50
Clear
Fog
59°F / 15°C 59°F / 15°C 100% 30.01 in
(1016 mb)
Calm - 1/2SM
03:42
Clear
Fog And Mist
59°F / 15°C 59°F / 15°C 100% 30.01 in
(1016 mb)
Calm - 1 1/4SM
03:28
Clear
Fog And Mist
57°F / 14°C 57°F / 14°C 100% 30.01 in
(1016 mb)
Calm - 2SM
02:53
Clear
Fog And Mist
57°F / 14°C 57°F / 14°C 100% 30.01 in
(1016 mb)
Calm - 5SM
01:53
Clear
Fog And Mist
61°F / 16°C 59°F / 15°C 94% 30.01 in
(1016 mb)
Calm - 5SM
01:37
Clear
Fog And Mist
59°F / 15°C 59°F / 15°C 100% 30.01 in
(1016 mb)
Calm - 5SM
01:29
Clear
Fog And Mist
59°F / 15°C 57°F / 14°C 94% 30.01 in
(1016 mb)
Calm - 2 1/2SM
00:53
Clear
63°F / 17°C 61°F / 16°C 94% 30.01 in
(1016 mb)
Calm - 7SM
Time Weather Temperature Dewpoint Humidity Pressure Winds Precip Visibility


Weather for websites

WeatherForYou.com, LLC is not responsible for any damages or problems caused by this service. Current weather conditions are obtained from the closest station including government and personal stations which may have varying degrees of accuracy. Weather forecasts are derived from the NOAA NDFD. Like all things, this site belongs to Jesus Christ... He just trusts me to maintain it. If you have any questions or comments email webmaster@weatherforyou.com

Copyright © 2014, WeatherForYou.com LLC. All rights reserved.